Regional Weather Roundup
Issued by NWS

Home | Current Version | Previous Version | Text Only | Print | Product List | Glossary On
Versions: 1 2 3 4 5 6 7 8 9 10 11 12 13 14 15 16 17 18 19 20 21 22 23 24 25 26 27 28 29 30 31 32 33 34 35 36 37 38 39 40 41 42 43 44 45 46 47 48 49 50
000
ASUS44 KFWD 261615
RWRTX
NORTH TEXAS HOURLY WEATHER ROUNDUP
NATIONAL WEATHER SERVICE FORT WORTH TX
1100 AM CDT WED APR 26 2017

NOTE: "FAIR" INDICATES FEW OR NO CLOUDS BELOW 12,000 FEET WITH NO
SIGNIFICANT WEATHER AND/OR OBSTRUCTIONS TO VISIBILITY.

TXZ118-119-261700-
DALLAS/FORT WORTH METROPLEX

CITY           SKY/WX    TMP DP  RH WIND       PRES   REMARKS
DFW AIRPORT    CLOUDY    65  60  84 N15       29.53R
DALLAS LOVE    CLOUDY    63  58  83 N13       29.54R
FTW MEACHAM    FAIR      65  58  78 NW9       29.54F
DAL-EXECUTIVE  CLOUDY    64  63  96 NW14      29.52R FOG
FTW-ALLIANCE   PTSUNNY   63  56  78 NE12      29.55R
FTW-NAS-JRB    PTSUNNY   65  56  72 N12       29.55F
FTW-SPINKS     MOSUNNY   68  59  73 NW12      29.56R
ARLINGTON      PTSUNNY   67  59  75 NW13      29.54S
GRAND PRAIRIE  CLOUDY    64  57  77 N12       29.55R
ADDISON        CLOUDY    61  57  88 N15G23    29.55R
MESQUITE       CLOUDY    66  66 100 NW10      29.52R
LANCASTER      LGT RAIN  65  64  94 NW12G20   29.53R
$$

TXZ091>094-102>105-117-120-121-131>134-261700-
NORTH CENTRAL TEXAS

CITY           SKY/WX    TMP DP  RH WIND       PRES   REMARKS
SHRMAN/DENISON CLOUDY    54  52  94 N12G17    29.58R
GAINESVILLE    CLOUDY    54  50  86 N14       29.64R
BOWIE          CLOUDY    54  51  90 NW13      29.66R
BRIDGEPORT     CLOUDY    55  50  83 N16G24    29.67R
DECATUR        CLOUDY    54  49  83 NW12G20   29.63R
DENTON         PTSUNNY   59  53  80 NW21G26   29.60R
MCKINNEY       CLOUDY    61  60  97 N15       29.55R
BONHAM         CLOUDY    55  54  94 N14       29.56R
GREENVILLE     RAIN      70  68  94 N10G16    29.51R
ROCKWALL       LGT RAIN  65  65 100 NW10      29.52R
TERRELL        CLOUDY    71  66  84 MISG      29.49S
WAXAHACHIE     CLOUDY    65  65 100 NW17G23   29.54R FOG
CLEBURNE       FAIR      68  64  88 N12       29.56S
GRANBURY       FAIR      68  58  70 NW21      29.60R
$$

TXZ083>090-098>101-113>116-127>130-139>142-154-155-261700-
WESTERN NORTH TEXAS

CITY           SKY/WX    TMP DP  RH WIND       PRES   REMARKS
WICHITA FALLS  CLOUDY    53  43  68 N21       29.70R
VERNON         CLOUDY    52  39  60 N18       29.73R
ABILENE        FAIR      66  52  60 N21G30    29.69R
ABILENE-DYESS  FAIR      67  52  59 N25       29.67R
GRAHAM         CLOUDY    55  50  81 NW18G24   29.68R
BRECKENRIDGE   CLOUDY    58  49  72 NW20G28   29.69R
CISCO          CLOUDY    63  54  72 NW14G28   29.67R
RANGER         CLOUDY    62  54  74 NW16G26   29.66R
MINERAL WELLS  CLOUDY    58  51  78 N18       29.64R
STEPHENVILLE   FAIR      72  56  57 NW5       29.59S
COMANCHE       FAIR      72  58  60 NW10      29.61R
BROWNWOOD      FAIR      73  54  49 W14       29.64R
COLEMAN        FAIR      73  47  39 NW15G21   29.65R
$$

TXZ143>147-156>162-174-175-261700-
CENTRAL TEXAS

CITY           SKY/WX    TMP DP  RH WIND       PRES   REMARKS
WACO           FAIR      83  70  64 SW14      29.51R
WACO-MCGREGOR  FAIR      84  70  62 SW12G21   29.52R
HILLSBORO      PTSUNNY   71  65  81 NW21G36   29.53R
CORSICANA      CLOUDY    80  70  71 SW15      29.50S
MEXIA          FAIR      81  69  67 S22       29.50R
HEARNE         FAIR      81  72  72 S12       29.53S
CAMERON        FAIR      82  70  65 SW14G20   29.52R
TEMPLE         PTSUNNY   84  72  67 SW13      29.54R
KILLEEN        FAIR      81  65  56 W12       29.53R
KILLEEN-SKYLRK PTSUNNY   82  67  60 W10G18    29.54R
FORT HOOD      FAIR      82  65  56 W13       29.50S
GATESVILLE     FAIR      81  64  57 NW14G23   29.56R
HAMILTON       FAIR      74  58  56 NW15      29.59R
LAMPASAS       FAIR      78  61  55 NW9G18    29.58R
$$

TXZ095>097-106>112-122>126-135>138-148>153-164>167-261700-
EAST TEXAS

CITY           SKY/WX    TMP DP  RH WIND       PRES   REMARKS
PARIS          PTSUNNY   64  61  88 NW7       29.51R
SULPHUR SPRNGS CLOUDY    70  67  90 SW5       29.52R
MOUNT PLEASANT FAIR      77  68  73 S8        29.50F
GILMER         CLOUDY    76  68  75 S13       29.50R
MINEOLA        CLOUDY    77  68  73 S7        29.49S
TYLER          CLOUDY    77  69  76 S17       29.49S
LONGVIEW       PTSUNNY   79  70  74 S20G26    29.49F HAZE
MARSHALL       PTSUNNY   75  67  76 S18G24    29.54F
ATHENS         CLOUDY    77  66  69 S9G21     29.48S
PALESTINE      PTSUNNY   79  70  74 S16G26    29.52S
JACKSONVILLE   FAIR      78  69  74 S14G23    29.54R
HENDERSON      PTSUNNY   79  68  69 S13G22    29.52S
CENTER         CLOUDY    80  73  77 S10G17    29.58F
NACOGDOCHES    PTSUNNY   77  70  78 S10G16    29.54F
LUFKIN         FAIR      79  70  74 S14       29.55F
$$

SUPPLEMENTAL OBSERVATIONS (CENTRAL)

CITY           SKY/WX    TMP DP  RH WIND       PRES   REMARKS
DENISON DAM      N/A     54  50  87 VRB16       N/A
CADDO GRASSLND   N/A     57  54  88 N5G13       N/A
PAT MAYSE LAKE   N/A     61  59  94 NW10        N/A
GREENVILLE       N/A     64  61  88 N13         N/A
CEDAR HILL       N/A     64  61  88 N6G15       N/A
ATHENS           N/A     79  68  69 S10G21      N/A
LAKE LIMESTONE   N/A     82  70  65 S17G24      N/A
MCGREGOR         N/A     82  68  61 W14         N/A
TEMPLE           N/A     84  70  61 SW8G16      N/A
$$

SUPPLEMENTAL OBSERVATIONS (WEST)

CITY           SKY/WX    TMP DP  RH WIND       PRES   REMARKS
MILLERS CREEK    N/A     54  45  71 N15G23      N/A
POSSUM KINGDOM   N/A     57  50  77 N18G25      N/A
LBJ GRASSLAND    N/A     54  48  82 NW12        N/A
GRANBURY         N/A     66  55  68 NW21G32     N/A
COMANCHE         N/A     73  57  56 NW18G24     N/A
HAMBY            N/A     64  50  59 VRB14G23    N/A
IVIE RESERVOIR   N/A     73  36  25 NW22G31     N/A
COLORADO BEND    N/A     79  52  38 VRB12       N/A
$$

SUPPLEMENTAL OBSERVATIONS (EAST)

CITY           SKY/WX    TMP DP  RH WIND       PRES   REMARKS
TEXARKANA        N/A     79  70  73 S7          N/A
LINDEN           N/A     79  68  69 S7G20       N/A
CADDO LAKE       N/A     81  70  69 S7G17       N/A
LUFKIN           N/A     81  70  69 MISG        N/A
$$

SUPPLEMENTAL OBSERVATIONS ARE A COLLECTION OF AUTOMATED INSTRUMENTS
THAT ARE MAINTAINED BY A VARIETY OF FEDERAL AND STATE AGENCIES.
CERTAIN ELEMENTS...SUCH AS HUMIDITY VALUES AND SUSTAINED WIND
SPEEDS...MAY BE APPROXIMATED.





USA.gov is the U.S. government's official web portal to all federal, state and local government web resources and services.